2015-04-25 00:08:49 r, 20.40m,0000000001Hz,0000782594c,0000001.698s, 015.4C,00002191
2015-04-25 00:18:48 r, 20.43m,0000000000Hz,0000802952c,0000001.743s, 015.1C,00002191
2015-04-25 00:28:48 r, 20.46m,0000000001Hz,0000822786c,0000001.786s, 015.1C,00002191
2015-04-25 00:38:48 r, 20.49m,0000000000Hz,0000849290c,0000001.843s, 014.8C,00002191
2015-04-25 00:48:48 r, 20.52m,0000000000Hz,0000873627c,0000001.896s, 014.8C,00002191
2015-04-25 00:58:48 r, 20.55m,0000000001Hz,0000900311c,0000001.954s, 014.5C,00002191
2015-04-25 01:08:49 r, 20.59m,0000000000Hz,0000926497c,0000002.011s, 014.5C,00002191
2015-04-25 01:18:48 r, 20.62m,0000000001Hz,0000955189c,0000002.073s, 014.5C,00002191
2015-04-25 01:28:48 r, 20.66m,0000000000Hz,0000991153c,0000002.151s, 014.1C,00002191
2015-04-25 01:38:48 r, 20.70m,0000000000Hz,0001028236c,0000002.231s, 014.1C,00002191
2015-04-25 01:48:48 r, 20.76m,0000000000Hz,0001082695c,0000002.350s, 014.1C,00002191
2015-04-25 01:58:48 r, 20.80m,0000000000Hz,0001135654c,0000002.465s, 014.1C,00002191
2015-04-25 02:08:48 r, 20.85m,0000000000Hz,0001186102c,0000002.574s, 014.1C,00002191
2015-04-25 02:18:48 r, 20.89m,0000000001Hz,0001226071c,0000002.661s, 013.8C,00002191
2015-04-25 02:28:48 r, 20.92m,0000000000Hz,0001256396c,0000002.727s, 013.8C,00002191
2015-04-25 02:38:50 r, 20.94m,0000000001Hz,0001282451c,0000002.783s, 013.5C,00002191
2015-04-25 02:48:48 r, 20.95m,0000000000Hz,0001293129c,0000002.806s, 013.5C,00002191
2015-04-25 02:58:48 r, 20.96m,0000000001Hz,0001294973c,0000002.810s, 013.5C,00002191
2015-04-25 03:08:48 r, 20.96m,0000000001Hz,0001298890c,0000002.819s, 013.5C,00002191
2015-04-25 03:18:48 r, 20.96m,0000000000Hz,0001298999c,0000002.819s, 013.5C,00002191
2015-04-25 03:28:48 r, 20.96m,0000000000Hz,0001298811c,0000002.819s, 013.5C,00002191
2015-04-25 03:38:49 r, 20.96m,0000000001Hz,0001298998c,0000002.819s, 013.2C,00002191
2015-04-25 03:48:48 r, 20.96m,0000000001Hz,0001300450c,0000002.822s, 013.2C,00002191
2015-04-25 03:58:48 r, 20.95m,0000000000Hz,0001294308c,0000002.809s, 013.2C,00002191
2015-04-25 04:08:48 r, 20.94m,0000000000Hz,0001283370c,0000002.785s, 013.2C,00002191
2015-04-25 04:18:48 r, 20.92m,0000000001Hz,0001256770c,0000002.727s, 012.8C,00002191
2015-04-25 04:28:48 r, 20.85m,0000000000Hz,0001185727c,0000002.573s, 012.8C,00002191
2015-04-25 04:38:49 r, 20.67m,0000000000Hz,0000998276c,0000002.166s, 012.8C,00002191
2015-04-25 04:48:48 r, 20.19m,0000000001Hz,0000651049c,0000001.413s, 012.8C,00002191
2015-04-25 04:58:48 r, 19.39m,0000000002Hz,0000310728c,0000000.674s, 012.8C,00002191
2015-04-25 05:08:48 r, 18.29m,0000000004Hz,0000113237c,0000000.246s, 012.8C,00002191
2015-04-25 05:18:48 r, 16.98m,0000000014Hz,0000034263c,0000000.074s, 012.8C,00002191
2015-04-25 05:28:48 r, 15.52m,0000000052Hz,0000008843c,0000000.019s, 012.8C,00002191
2015-04-25 05:38:48 r, 13.67m,0000000288Hz,0000000000c,0000000.000s, 012.8C,00002191
2015-04-25 05:48:49 r, 11.68m,0000001806Hz,0000000000c,0000000.000s, 013.2C,00002191
2015-04-25 05:58:48 r, 10.04m,0000008169Hz,0000000000c,0000000.000s, 013.5C,00002191
2015-04-25 06:08:48 r, 08.66m,0000029143Hz,0000000000c,0000000.000s, 014.1C,00002191
2015-04-25 06:18:48 r, 07.50m,0000084890Hz,0000000000c,0000000.000s, 014.5C,00002191
2015-04-25 06:28:48 r, 07.03m,0000130793Hz,0000000000c,0000000.000s, 015.1C,00002191
2015-04-25 06:38:48 r, 06.32m,0000250750Hz,0000000000c,0000000.000s, 015.1C,00002191
2015-04-25 06:48:50 r, 00.00m,0000525845Hz,0000000000c,0000000.000s, 015.4C,00002191
2015-04-25 06:58:48 r, 00.00m,0000595277Hz,0000000000c,0000000.000s, 016.1C,00002191
2015-04-25 07:08:48 r, 00.00m,0000595274Hz,0000000000c,0000000.000s, 016.4C,00002191
2015-04-25 07:18:50 r, 00.00m,0000595247Hz,0000000000c,0000000.000s, 016.7C,00002191
2015-04-25 07:28:48 r, 00.00m,0000595275Hz,0000000000c,0000000.000s, 017.0C,00002191
2015-04-25 07:38:48 r, 00.00m,0000595210Hz,0000000000c,0000000.000s, 017.7C,00002191
2015-04-25 07:48:49 r, 00.00m,0000595198Hz,0000000000c,0000000.000s, 018.3C,00002191
2015-04-25 07:58:48 r, 00.00m,0000595168Hz,0000000000c,0000000.000s, 018.6C,00002191
2015-04-25 08:08:48 r, 00.00m,0000595191Hz,0000000000c,0000000.000s, 019.3C,00002191
2015-04-25 08:18:48 r, 00.00m,0000595074Hz,0000000000c,0000000.000s, 019.9C,00002191
2015-04-25 08:28:48 r, 00.00m,0000594978Hz,0000000000c,0000000.000s, 020.3C,00002191
2015-04-25 08:38:48 r, 00.00m,0000594966Hz,0000000000c,0000000.000s, 021.2C,00002191
2015-04-25 08:48:48 r, 00.00m,0000594872Hz,0000000000c,0000000.000s, 021.9C,00002191
2015-04-25 08:58:48 r, 00.00m,0000594926Hz,0000000000c,0000000.000s, 022.2C,00002191
2015-04-25 09:08:48 r, 00.00m,0000594857Hz,0000000000c,0000000.000s, 022.5C,00002191
2015-04-25 09:18:50 r, 00.00m,0000594697Hz,0000000000c,0000000.000s, 023.8C,00002191
2015-04-25 09:28:48 r, 00.00m,0000594534Hz,0000000000c,0000000.000s, 026.1C,00002191
2015-04-25 09:38:48 r, 00.00m,0000594254Hz,0000000000c,0000000.000s, 028.3C,00002191
2015-04-25 09:48:48 r, 00.00m,0000594130Hz,0000000000c,0000000.000s, 029.9C,00002191
2015-04-25 09:58:48 r, 00.00m,0000593944Hz,0000000000c,0000000.000s, 030.9C,00002191
2015-04-25 10:08:48 r, 00.00m,0000593885Hz,0000000000c,0000000.000s, 031.5C,00002191
2015-04-25 10:18:48 r, 00.00m,0000593802Hz,0000000000c,0000000.000s, 032.5C,00002191
2015-04-25 10:28:48 r, 00.00m,0000593619Hz,0000000000c,0000000.000s, 033.1C,00002191
2015-04-25 10:38:48 r, 00.00m,0000593565Hz,0000000000c,0000000.000s, 033.8C,00002191
2015-04-25 10:48:48 r, 00.00m,0000593584Hz,0000000000c,0000000.000s, 034.8C,00002191
2015-04-25 10:58:48 r, 00.00m,0000593410Hz,0000000000c,0000000.000s, 035.4C,00002191
2015-04-25 11:08:48 r, 00.00m,0000593261Hz,0000000000c,0000000.000s, 036.0C,00002191
2015-04-25 11:18:48 r, 00.00m,0000593146Hz,0000000000c,0000000.000s, 036.4C,00002191
2015-04-25 11:28:48 r, 00.00m,0000593163Hz,0000000000c,0000000.000s, 037.0C,00002191
2015-04-25 11:38:48 r, 00.00m,0000593048Hz,0000000000c,0000000.000s, 037.3C,00002191
2015-04-25 11:48:48 r, 00.00m,0000592950Hz,0000000000c,0000000.000s, 038.0C,00002191
2015-04-25 11:58:48 r, 00.00m,0000592880Hz,0000000000c,0000000.000s, 038.6C,00002191
2015-04-25 12:08:49 r, 00.00m,0000592813Hz,0000000000c,0000000.000s, 039.0C,00002191
2015-04-25 12:18:49 r, 00.00m,0000592699Hz,0000000000c,0000000.000s, 039.3C,00002191
2015-04-25 12:28:48 r, 00.00m,0000592655Hz,0000000000c,0000000.000s, 039.9C,00002191
2015-04-25 12:38:48 r, 00.00m,0000592620Hz,0000000000c,0000000.000s, 039.9C,00002191
2015-04-25 12:48:48 r, 00.00m,0000592556Hz,0000000000c,0000000.000s, 040.2C,00002191
2015-04-25 12:58:48 r, 00.00m,0000592563Hz,0000000000c,0000000.000s, 040.6C,00002191
2015-04-25 13:08:48 r, 00.00m,0000592433Hz,0000000000c,0000000.000s, 041.2C,00002191
2015-04-25 13:18:48 r, 00.00m,0000592393Hz,0000000000c,0000000.000s, 041.9C,00002191
2015-04-25 13:28:49 r, 00.00m,0000592342Hz,0000000000c,0000000.000s, 042.2C,00002191
2015-04-25 13:38:48 r, 00.00m,0000592343Hz,0000000000c,0000000.000s, 042.5C,00002191
2015-04-25 13:48:48 r, 00.00m,0000592352Hz,0000000000c,0000000.000s, 042.5C,00002191
2015-04-25 13:58:49 r, 00.00m,0000592216Hz,0000000000c,0000000.000s, 043.5C,00002191
2015-04-25 14:08:48 r, 00.00m,0000592120Hz,0000000000c,0000000.000s, 044.1C,00002191
2015-04-25 14:18:49 r, 00.00m,0000592126Hz,0000000000c,0000000.000s, 044.4C,00002191
2015-04-25 14:28:48 r, 00.00m,0000592111Hz,0000000000c,0000000.000s, 044.4C,00002191
2015-04-25 14:38:48 r, 00.00m,0000592032Hz,0000000000c,0000000.000s, 044.4C,00002191
2015-04-25 14:48:48 r, 00.00m,0000592081Hz,0000000000c,0000000.000s, 044.1C,00002191
2015-04-25 14:58:48 r, 00.00m,0000592062Hz,0000000000c,0000000.000s, 043.8C,00002191
2015-04-25 15:08:48 r, 00.00m,0000592164Hz,0000000000c,0000000.000s, 044.1C,00002191
2015-04-25 15:18:48 r, 00.00m,0000592125Hz,0000000000c,0000000.000s, 044.1C,00002191
2015-04-25 15:28:48 r, 00.00m,0000592101Hz,0000000000c,0000000.000s, 044.1C,00002191
2015-04-25 15:38:48 r, 00.00m,0000592180Hz,0000000000c,0000000.000s, 043.8C,00002191
2015-04-25 15:48:49 r, 00.00m,0000592253Hz,0000000000c,0000000.000s, 043.5C,00002191
2015-04-25 15:58:49 r, 00.00m,0000592276Hz,0000000000c,0000000.000s, 043.5C,00002191
2015-04-25 16:08:49 r, 00.00m,0000592416Hz,0000000000c,0000000.000s, 043.1C,00002191
2015-04-25 16:18:48 r, 00.00m,0000592439Hz,0000000000c,0000000.000s, 042.8C,00002191
2015-04-25 16:28:49 r, 00.00m,0000592449Hz,0000000000c,0000000.000s, 042.2C,00002191
2015-04-25 16:38:49 r, 00.00m,0000592549Hz,0000000000c,0000000.000s, 041.5C,00002191
2015-04-25 16:48:48 r, 00.00m,0000592644Hz,0000000000c,0000000.000s, 040.9C,00002191
2015-04-25 16:58:48 r, 00.00m,0000592606Hz,0000000000c,0000000.000s, 040.6C,00002191
2015-04-25 17:08:48 r, 00.00m,0000592689Hz,0000000000c,0000000.000s, 040.6C,00002191
2015-04-25 17:18:48 r, 00.00m,0000592849Hz,0000000000c,0000000.000s, 039.9C,00002191
2015-04-25 17:28:49 r, 00.00m,0000592878Hz,0000000000c,0000000.000s, 039.3C,00002191
2015-04-25 17:38:49 r, 00.00m,0000593004Hz,0000000000c,0000000.000s, 038.0C,00002191
2015-04-25 17:48:50 r, 00.00m,0000593118Hz,0000000000c,0000000.000s, 037.3C,00002191
2015-04-25 17:58:48 r, 00.00m,0000593127Hz,0000000000c,0000000.000s, 037.0C,00002191
2015-04-25 18:08:49 r, 00.00m,0000593328Hz,0000000000c,0000000.000s, 036.4C,00002191
2015-04-25 18:18:50 r, 00.00m,0000593371Hz,0000000000c,0000000.000s, 035.4C,00002191
2015-04-25 18:28:49 r, 00.00m,0000593451Hz,0000000000c,0000000.000s, 034.4C,00002191
2015-04-25 18:38:49 r, 00.00m,0000593454Hz,0000000000c,0000000.000s, 033.5C,00002191
2015-04-25 18:48:49 r, 00.00m,0000593497Hz,0000000000c,0000000.000s, 033.1C,00002191
2015-04-25 18:58:49 r, 00.00m,0000593622Hz,0000000000c,0000000.000s, 032.5C,00002191
2015-04-25 19:08:49 r, 00.00m,0000593722Hz,0000000000c,0000000.000s, 031.9C,00002191
2015-04-25 19:18:49 r, 00.00m,0000593858Hz,0000000000c,0000000.000s, 031.2C,00002191
2015-04-25 19:28:49 r, 00.00m,0000593863Hz,0000000000c,0000000.000s, 030.6C,00002191
2015-04-25 19:38:48 r, 00.00m,0000593911Hz,0000000000c,0000000.000s, 029.9C,00002191
2015-04-25 19:48:49 r, 00.00m,0000594057Hz,0000000000c,0000000.000s, 029.6C,00002191
2015-04-25 19:58:49 r, 00.00m,0000554768Hz,0000000000c,0000000.000s, 029.0C,00002191
2015-04-25 20:08:48 r, 05.84m,0000388538Hz,0000000000c,0000000.000s, 028.0C,00002191
2015-04-25 20:18:49 r, 06.33m,0000249630Hz,0000000000c,0000000.000s, 027.3C,00002191
2015-04-25 20:28:49 r, 06.97m,0000137294Hz,0000000000c,0000000.000s, 026.7C,00002191
2015-04-25 20:38:48 r, 07.98m,0000054040Hz,0000000000c,0000000.000s, 026.1C,00002191
2015-04-25 20:48:48 r, 09.21m,0000017444Hz,0000000000c,0000000.000s, 025.4C,00002191
2015-04-25 20:58:49 r, 10.83m,0000003926Hz,0000000000c,0000000.000s, 024.8C,00002191
2015-04-25 21:08:48 r, 12.65m,0000000733Hz,0000000000c,0000000.000s, 024.1C,00002191
2015-04-25 21:18:48 r, 14.58m,0000000124Hz,0000003713c,0000000.008s, 024.1C,00002191
2015-04-25 21:28:49 r, 16.30m,0000000025Hz,0000018262c,0000000.040s, 023.8C,00002191
2015-04-25 21:38:49 r, 17.57m,0000000007Hz,0000058620c,0000000.127s, 023.5C,00002191
2015-04-25 21:48:50 r, 18.53m,0000000004Hz,0000141905c,0000000.308s, 023.2C,00002191
2015-04-25 21:58:49 r, 19.18m,0000000002Hz,0000256361c,0000000.556s, 022.5C,00002191
2015-04-25 22:08:49 r, 19.53m,0000000002Hz,0000352451c,0000000.765s, 022.2C,00002191
2015-04-25 22:18:48 r, 19.69m,0000000001Hz,0000408018c,0000000.885s, 021.9C,00002191
2015-04-25 22:28:48 r, 19.77m,0000000001Hz,0000440803c,0000000.957s, 021.5C,00002191
2015-04-25 22:38:48 r, 19.83m,0000000001Hz,0000463784c,0000001.006s, 021.2C,00002191
2015-04-25 22:48:49 r, 19.84m,0000000001Hz,0000472213c,0000001.025s, 020.9C,00002191
2015-04-25 22:58:49 r, 19.83m,0000000001Hz,0000468597c,0000001.017s, 020.6C,00002191
2015-04-25 23:08:49 r, 19.92m,0000000001Hz,0000506017c,0000001.098s, 020.3C,00002191
2015-04-25 23:18:49 r, 20.00m,0000000001Hz,0000541394c,0000001.175s, 020.3C,00002191
2015-04-25 23:28:49 r, 20.03m,0000000001Hz,0000558997c,0000001.213s, 019.9C,00002191
2015-04-25 23:38:49 r, 20.05m,0000000000Hz,0000570042c,0000001.237s, 019.6C,00002191
2015-04-25 23:48:49 r, 20.10m,0000000001Hz,0000598191c,0000001.298s, 019.6C,00002191
2015-04-25 23:58:49 r, 20.15m,0000000001Hz,0000628772c,0000001.365s, 019.3C,00002191
